Meteo pe oră la Dziedzinek

Astăzi, 26 Februarie, Vineri

Timp Temperatura Precipitaţii Vânt Presiune Umiditate
00:00 +7°C° 0 mm 3 m/s 755 mmHg 92%
01:00 +7°C° 0 mm 3 m/s 755 mmHg 95%
02:00 +5°C° 0 mm 3 m/s 755 mmHg 94%
03:00 +4°C° 0 mm 3 m/s 755 mmHg 94%
04:00 +4°C° 0 mm 3 m/s 755 mmHg 94%
05:00 +4°C° 0 mm 3 m/s 755 mmHg 92%
06:00 +3°C° 0 mm 3 m/s 755 mmHg 90%
07:00 +3°C° 0 mm 3 m/s 755 mmHg 86%
08:00 +4°C° 0.1 mm 3 m/s 755 mmHg 82%
09:00 +4°C° 0.1 mm 4 m/s 755 mmHg 78%
10:00 +5°C° 0.1 mm 4 m/s 755 mmHg 74%
11:00 +6°C° 0 mm 5 m/s 755 mmHg 71%
12:00 +6°C° 0 mm 5 m/s 756 mmHg 68%
13:00 +7°C° 0 mm 6 m/s 756 mmHg 63%
14:00 +7°C° 0 mm 6 m/s 755 mmHg 66%
15:00 +6°C° 0 mm 5 m/s 755 mmHg 69%
16:00 +6°C° 0 mm 5 m/s 755 mmHg 73%
17:00 +5°C° 0 mm 5 m/s 755 mmHg 76%
18:00 +5°C° 0 mm 5 m/s 755 mmHg 79%
19:00 +3°C° 0 mm 5 m/s 755 mmHg 81%
20:00 +3°C° 0 mm 5 m/s 755 mmHg 82%
21:00 +3°C° 0 mm 5 m/s 755 mmHg 83%
22:00 +2°C° 0 mm 5 m/s 755 mmHg 84%
23:00 +2°C° 0 mm 5 m/s 755 mmHg 86%

Mâine, 27 Februarie, Sâmbătă

Timp Temperatura Precipitaţii Vânt Presiune Umiditate
00:00 +1°C° 0 mm 5 m/s 756 mmHg 88%
01:00 +1°C° 0 mm 5 m/s 756 mmHg 90%
02:00 +1°C° 0 mm 5 m/s 756 mmHg 90%
03:00 +1°C° 0 mm 5 m/s 756 mmHg 90%
04:00 +1°C° 0 mm 5 m/s 757 mmHg 89%
05:00 0°C° 0 mm 4 m/s 757 mmHg 91%
06:00 0°C° 0 mm 4 m/s 758 mmHg 92%
07:00 -1°C° 0 mm 4 m/s 758 mmHg 94%
08:00 0°C° 0 mm 4 m/s 759 mmHg 88%
09:00 +3°C° 0 mm 4 m/s 759 mmHg 82%
10:00 +3°C° 0 mm 5 m/s 759 mmHg 77%
11:00 +5°C° 0 mm 5 m/s 760 mmHg 71%
12:00 +5°C° 0 mm 5 m/s 760 mmHg 66%
13:00 +6°C° 0 mm 5 m/s 761 mmHg 61%
14:00 +6°C° 0 mm 5 m/s 761 mmHg 62%
15:00 +6°C° 0 mm 4 m/s 761 mmHg 62%
16:00 +5°C° 0 mm 4 m/s 761 mmHg 63%
17:00 +4°C° 0 mm 4 m/s 761 mmHg 69%
18:00 +3°C° 0 mm 3 m/s 761 mmHg 75%
19:00 +1°C° 0 mm 3 m/s 761 mmHg 82%
20:00 +1°C° 0 mm 3 m/s 761 mmHg 84%
21:00 0°C° 0 mm 3 m/s 761 mmHg 86%
22:00 -1°C° 0 mm 2 m/s 761 mmHg 88%
23:00 -1°C° 0 mm 2 m/s 762 mmHg 86%

Poimâine, 28 Februarie, Duminică

Timp Temperatura Precipitaţii Vânt Presiune Umiditate
00:00 -1°C° 0 mm 2 m/s 762 mmHg 85%
01:00 -1°C° 0 mm 2 m/s 762 mmHg 83%
02:00 +1°C° 0 mm 2 m/s 762 mmHg 83%
03:00 +1°C° 0 mm 2 m/s 761 mmHg 83%
04:00 +1°C° 0 mm 2 m/s 761 mmHg 83%
05:00 +1°C° 0 mm 2 m/s 761 mmHg 87%
06:00 +1°C° 0 mm 2 m/s 761 mmHg 90%
07:00 +1°C° 0 mm 2 m/s 761 mmHg 94%
08:00 +1°C° 0 mm 3 m/s 761 mmHg 92%
09:00 +2°C° 0 mm 3 m/s 761 mmHg 91%
10:00 +3°C° 0 mm 3 m/s 761 mmHg 90%
11:00 +3°C° 0 mm 3 m/s 761 mmHg 89%
12:00 +3°C° 0 mm 3 m/s 761 mmHg 89%
13:00 +3°C° 0 mm 3 m/s 761 mmHg 88%
14:00 +3°C° 0 mm 3 m/s 761 mmHg 89%
15:00 +3°C° 0 mm 4 m/s 761 mmHg 89%
16:00 +3°C° 0 mm 4 m/s 761 mmHg 89%
17:00 +3°C° 0 mm 3 m/s 761 mmHg 89%
18:00 +3°C° 0 mm 3 m/s 761 mmHg 90%
19:00 +3°C° 0 mm 2 m/s 761 mmHg 90%
20:00 +3°C° 0 mm 2 m/s 761 mmHg 91%
21:00 +3°C° 0 mm 2 m/s 762 mmHg 91%
22:00 +2°C° 0 mm 2 m/s 762 mmHg 91%
23:00 +3°C° 0 mm 1 m/s 762 mmHg 92%

1 Martie, Luni

Timp Temperatura Precipitaţii Vânt Presiune Umiditate
00:00 +2°C° 0 mm 1 m/s 762 mmHg 93%
01:00 +1°C° 0 mm 1 m/s 762 mmHg 94%
02:00 +1°C° 0 mm 1 m/s 762 mmHg 94%
03:00 +1°C° 0 mm 1 m/s 762 mmHg 94%
04:00 +1°C° 0 mm 1 m/s 762 mmHg 94%
05:00 +1°C° 0 mm 1 m/s 762 mmHg 93%
06:00 +1°C° 0 mm 1 m/s 762 mmHg 93%
07:00 +1°C° 0 mm 1 m/s 762 mmHg 92%
08:00 +3°C° 0 mm 1 m/s 763 mmHg 85%
09:00 +4°C° 0 mm 2 m/s 763 mmHg 78%
10:00 +5°C° 0 mm 2 m/s 763 mmHg 71%
11:00 +6°C° 0 mm 2 m/s 763 mmHg 68%
12:00 +8°C° 0 mm 2 m/s 763 mmHg 65%
13:00 +9°C° 0 mm 3 m/s 763 mmHg 61%
14:00 +9°C° 0 mm 3 m/s 763 mmHg 64%
15:00 +9°C° 0 mm 3 m/s 762 mmHg 66%
16:00 +8°C° 0 mm 3 m/s 762 mmHg 69%
17:00 +7°C° 0 mm 3 m/s 762 mmHg 74%
18:00 +5°C° 0 mm 3 m/s 762 mmHg 79%
19:00 +4°C° 0 mm 3 m/s 762 mmHg 85%
20:00 +3°C° 0 mm 3 m/s 762 mmHg 86%
21:00 +3°C° 0 mm 3 m/s 762 mmHg 87%
22:00 +2°C° 0 mm 3 m/s 762 mmHg 88%
23:00 +2°C° 0 mm 3 m/s 762 mmHg 89%

2 Martie, Marţi

Timp Temperatura Precipitaţii Vânt Presiune Umiditate
00:00 +2°C° 0 mm 3 m/s 762 mmHg 89%
01:00 +2°C° 0 mm 3 m/s 762 mmHg 90%
02:00 +1°C° 0 mm 3 m/s 761 mmHg 90%
03:00 +1°C° 0 mm 3 m/s 761 mmHg 90%
04:00 +1°C° 0 mm 3 m/s 761 mmHg 91%
05:00 +1°C° 0 mm 3 m/s 761 mmHg 91%
06:00 0°C° 0 mm 3 m/s 761 mmHg 91%
07:00 0°C° 0 mm 3 m/s 761 mmHg 91%
08:00 +3°C° 0 mm 2 m/s 761 mmHg 86%
09:00 +5°C° 0 mm 2 m/s 761 mmHg 80%
10:00 +6°C° 0 mm 2 m/s 761 mmHg 74%
11:00 +8°C° 0 mm 2 m/s 761 mmHg 68%
12:00 +9°C° 0 mm 2 m/s 761 mmHg 63%
13:00 +10°C° 0 mm 2 m/s 761 mmHg 57%
14:00 +10°C° 0 mm 2 m/s 760 mmHg 59%
15:00 +10°C° 0 mm 2 m/s 760 mmHg 60%
16:00 +11°C° 0 mm 1 m/s 760 mmHg 61%
17:00 +10°C° 0 mm 1 m/s 759 mmHg 66%
18:00 +8°C° 0 mm 1 m/s 759 mmHg 71%
19:00 +7°C° 0 mm 1 m/s 759 mmHg 75%
20:00 +6°C° 0 mm 1 m/s 759 mmHg 77%
21:00 +6°C° 0 mm 1 m/s 759 mmHg 79%
22:00 +5°C° 0 mm 1 m/s 759 mmHg 82%
23:00 +4°C° 0 mm 0 m/s 759 mmHg 82%

3 Martie, Miercuri

Timp Temperatura Precipitaţii Vânt Presiune Umiditate
00:00 +3°C° 0 mm 0 m/s 759 mmHg 83%
01:00 +3°C° 0 mm 0 m/s 759 mmHg 83%
02:00 +3°C° 0 mm 0 m/s 758 mmHg 84%
03:00 +2°C° 0 mm 0 m/s 758 mmHg 84%
04:00 +2°C° 0 mm 0 m/s 758 mmHg 85%
05:00 +3°C° 0 mm 1 m/s 758 mmHg 86%
06:00 +3°C° 0 mm 1 m/s 758 mmHg 86%
07:00 +3°C° 0 mm 1 m/s 758 mmHg 87%
08:00 +4°C° 0 mm 1 m/s 758 mmHg 81%
09:00 +6°C° 0 mm 1 m/s 758 mmHg 76%
10:00 +7°C° 0 mm 1 m/s 758 mmHg 71%
11:00 +8°C° 0 mm 1 m/s 758 mmHg 67%
12:00 +9°C° 0 mm 1 m/s 757 mmHg 64%
13:00 +10°C° 0 mm 1 m/s 757 mmHg 60%
14:00 +10°C° 0 mm 1 m/s 757 mmHg 61%
15:00 +10°C° 0 mm 1 m/s 757 mmHg 62%
16:00 +10°C° 0 mm 1 m/s 756 mmHg 63%
17:00 +9°C° 0 mm 1 m/s 756 mmHg 68%
18:00 +8°C° 0 mm 1 m/s 756 mmHg 74%
19:00 +7°C° 0 mm 1 m/s 756 mmHg 79%
20:00 +5°C° 0 mm 2 m/s 756 mmHg 81%
21:00 +5°C° 0 mm 2 m/s 756 mmHg 83%
22:00 +4°C° 0 mm 2 m/s 756 mmHg 86%
23:00 +4°C° 0 mm 2 m/s 756 mmHg 87%
Arată mai mult

Formular de consimțământ

Meteoprog și furnizorii noștri de servicii pot stoca și accesa date personale, precum cookies, identificatori de dispozitiv sau alte tehnologii similare pe dispozitivul dumneavoastră și procesa astfel de date pentru a personaliza conținutul și reclamele, dar și pentru a oferi caracteristici de social media și pentru a analiza traficul.

  • Stocarea și/sau accesarea informațiilor pe dispozitivul dumneavoastră

    Cookies, identificatori de dispozitiv sau alte informații pot fi stocate sau accesate pe dispozitiv în scopurile indicate mai sus.

  • Reclame și conținut personalizat, evaluarea reclamelor și a conținutului, informații despre audiențe și dezvoltarea produselor

    Reclamele și conținutul pot fi personalizate pe baza unui profil. Pot fi adăugate date suplimentare pentru a personaliza mai bine reclamele și conținutul. Performanța reclamelor și conținutului poate fi măsurată. Pot fi obținute informații despre utilizatorii care au văzut reclamele și conținutul. Aceste date pot fi utilizate pentru a dezvolta sau îmbunătăți experiența utilizatorilor, sistemele și software-ul.

Dând clic pe ‘Sunt de acord’, permiteți utilizarea cookie-urilor menționate, a identificatorilor de dispozitiv, balizelor web sau altor tehnologii similare. Setările pot fi modificate din browser-ul dispozitivului dumneavoastră.

În anumite scopuri, interesele legitime pot prima asupra consimțământului. Puteți citi mai multe informații în acest sens în Politica privind Confidențialitatea Datelor și Cookie.